Starlink 3625

operational
NORAD ID: 51777 Int'l Des: 2022-017 Owner: SPXS Country: US Constellation: starlink
LEOCIRCULAR

关于 Starlink 3625

正在加载描述...

实时位置

正在加载3D地球...

即将过境

高度历史

Altitude vs Time

uPlot chart will show altitude changes over time

两行轨道根数

1 51777U 22017K 25350.33227238 .00001210 00000-0 94103-4 0 9999
2 51777 53.2189 353.2990 0001303 94.3167 265.7974 15.08840632210016
Epoch: Dec 16, 2025 • Age: 19 hours

当前状态

高度 545.1 km
速度 7.60 km/s
星下点 51.67°N, 77.14°W
发射日期 Feb 25, 2022
运行时间 3.8 years
类型 internet

技术详情

分类 Payload
质量 297.00 kg
干质量 275.00 kg
总质量 297.00 kg
长度 0.20 m
直径 2.80 m
跨度 9.00 m
形状 Box + pan
制造商 SPXS
平台类型 Starlink
阶段状态 In Orbit
所有者/国家 SPXS/US

大型星座

Loading constellations...